Andover, NJ

4:54 PM EST on February 20, 2018 (GMT -0500)
Andover

Weather History for K12N - February, 2013

Change the Weather History Date:

Friday, February 15, 2013

  Actual Average (KFWN) Record (KFWN)
Temperature  
Mean Temperature 38 °F -  
Max Temperature 50 °F 37 °F 70 °F (1949)
Min Temperature 27 °F 15 °F -13 °F (1963)
Degree Days  
Heating Degree Days 26    
Moisture  
Dew Point 28 °F    
Average Humidity 68    
Maximum Humidity 96    
Minimum Humidity 44    
Precipitation  
Precipitation 0.09 in - - ()
Sea Level Pressure  
Sea Level Pressure 29.98 in    
Wind  
Wind Speed 2 mph (SW)    
Max Wind Speed 10 mph    
Max Gust Speed 20 mph    
Averages and records for this station are not official NWS values.
T = Trace of Precipitation, MM = Missing Value Source: NWS Daily Summary

Daily Weather History Graph

Daily Weather History Graph

Search for Another Location

Airport or City:

Trip Planner

Search our weather history database for the weather conditions in past years. The results will help you decide how hot, cold, wet, or windy it might be!

Date:

Astronomy

Feb. 15, 2013 Rise Set
Actual Time 6:53 AM EST 5:33 PM EST
Civil Twilight 6:24 AM EST 6:01 PM EST
Nautical Twilight 5:52 AM EST 6:34 PM EST
Astronomical Twilight 5:20 AM EST 7:05 PM EST
Moon 9:24 AM EST (2/15) 11:35 PM EST (2/15)
Length of Visible Light 11h 37m
Length of Day
10h 40m
Waxing Crescent, 30% of the Moon is Illuminated
Feb 15
Waxing Crescent
Feb 17
First Quarter
Feb 25
Full
Mar 4
Last Quarter
Mar 11
New

Hourly Weather History & Observations

Time (EST) Temp. Windchill Dew Point Humidity Pressure Visibility Wind Dir Wind Speed Gust Speed Precip Events Conditions
12:54 AM 30.0 °F - 27.0 °F 88% 30.00 in - Calm Calm - N/A   Unknown
1:54 AM 30.0 °F - 26.1 °F 85% 29.99 in - Calm Calm - N/A   Unknown
2:54 AM 28.9 °F 25.2 °F 24.1 °F 82% 29.99 in - SW 3.5 mph - N/A   Unknown
3:54 AM 28.9 °F - 25.0 °F 85% 29.99 in - Calm Calm - N/A   Unknown
4:54 AM 28.9 °F - 25.0 °F 85% 29.99 in - Calm Calm - N/A   Unknown
5:54 AM 28.0 °F - 25.0 °F 88% 29.99 in - Calm Calm - N/A   Unknown
6:54 AM 27.0 °F - 24.1 °F 89% 29.99 in - Calm Calm - N/A   Unknown
7:54 AM 28.9 °F - 26.1 °F 89% 30.01 in - Calm Calm - N/A   Unknown
8:54 AM 37.0 °F 32.4 °F 28.9 °F 73% 30.02 in - SSW 5.8 mph - N/A   Unknown
9:54 AM 41.0 °F 38.0 °F 30.0 °F 65% 30.01 in - Variable 4.6 mph - N/A   Unknown
10:54 AM 45.0 °F 43.5 °F 30.0 °F 56% 30.00 in - Variable 3.5 mph - N/A   Unknown
11:54 AM 46.9 °F - 28.9 °F 50% 29.97 in - SSW 9.2 mph 19.6 mph N/A   Unknown
12:54 PM 48.9 °F - 30.0 °F 48% 29.95 in - SW 10.4 mph 17.3 mph N/A   Unknown
1:54 PM 50.0 °F - 28.9 °F 44% 29.94 in - SSW 9.2 mph 18.4 mph N/A   Unknown
2:54 PM 50.0 °F - 28.9 °F 44% 29.93 in - SSW 9.2 mph 19.6 mph N/A   Unknown
3:54 PM 48.9 °F - 28.0 °F 44% 29.94 in - SSW 10.4 mph 16.1 mph N/A   Unknown
4:54 PM 48.9 °F - 28.0 °F 44% 29.94 in - WSW 3.5 mph - N/A   Unknown
5:54 PM 46.0 °F - 25.0 °F 44% 29.95 in - Calm Calm - N/A   Unknown
6:54 PM 41.0 °F - 28.0 °F 60% 29.95 in - Calm Calm - N/A   Unknown
7:54 PM 41.0 °F - 27.0 °F 57% 29.95 in - Calm Calm - N/A   Unknown
8:54 PM 39.9 °F - 27.0 °F 60% 29.96 in - Calm Calm - N/A   Unknown
9:54 PM 39.0 °F 35.7 °F 30.0 °F 70% 29.98 in - Variable 4.6 mph - N/A   Unknown
10:54 PM 35.1 °F - 32.0 °F 89% 30.01 in - Calm Calm - 0.03 in   Unknown
11:54 PM 33.1 °F - 32.0 °F 96% 30.00 in - Calm Calm - 0.06 in   Unknown